Terug naar catalogus

STARLINK-5516

ActiefCommunicatieVLEO
NORAD 57253·PAYLOAD·🇺🇸 United States

Gelanceerd Jul 7, 2023 vanaf Vandenberg Space Force Base

Loading…

Volgende Passages (komende 24 uur)

TLE

VersSource: CelesTrak SupGP

Epoch: Sep 14, 2026, 21:45 UTC

1 57253C 23094AM  26257.90673611  .00027744  00000+0  10048-2 0  2570
2 57253  43.0022  31.1764 0001458 276.1696 299.7620 15.27568279    10

Volg STARLINK-5516 in realtime met AllMySat

Download on the App Store